Location: ???????
(55.3754°N, 39.3545°E)
Time: 10:47:22
(UTC+00:00)

Cosmos 1869 Rocket - Pass Details

Date: 14 April 2026
Orbit: 598 x 625 km, 82.5° (Epoch: 19 May)

Event Time Altitude Azimuth Distance (km) Brightness Sun altitude
Rises 18:00:38 0° 198° (SSW) 2,875 6.8 -12.6°
Reaches altitude 10° 18:02:51 10° 201° (SSW) 1,979 6.0 -12.9°
Maximum altitude 18:07:14 67° 284° (WNW) 676 3.9 -13.4°
Drops below altitude 10° 18:11:40 10° 8° (N) 2,008 6.6 -13.8°
Sets 18:13:56 0° 11° (N) 2,922 7.5 -14.1°
